Location: Unspecified
(48.5539°N, 71.6350°W)
Time: 18:21:06
(UTC-05:00)

ISS - Pass Details

Date: 31 January 2019
Orbit: 403 x 411 km, 51.6° (Epoch: 20 February)

Event Time Altitude Azimuth Distance (km) Brightness Sun altitude
Rises 15:09:01 0° 215° (SW) 2,316 1.9 11.9°
Reaches altitude 10° 15:11:15 10° 203° (SSW) 1,462 0.5 11.6°
Maximum altitude 15:14:05 27° 144° (SE) 816 -2.1 11.3°
Drops below altitude 10° 15:16:57 10° 83° (E) 1,474 -1.4 10.9°
Sets 15:19:13 0° 71° (ENE) 2,341 -0.5 10.7°
